This is the latest recevied weather packets stored in our database for station/object IW2NIA-3. If no packets are shown the sender has not sent any weather packets the latest 10 day(s).
| Time | Temp. | Humidity | Pressure | Rain* | Wind** | Luminosity | Snow |
|---|---|---|---|---|---|---|---|
| 1777511021 | 13.33° C | 90% | 1020.3 hPa | 0 mm | - | - | - |
| 1777510111 | 13.33° C | 90% | 1020.2 hPa | 0 mm | - | - | - |
| 1777509210 | 13.33° C | 90% | 1020 hPa | 0 mm | - | - | - |
| 1777508323 | 13.33° C | 89% | 1019.8 hPa | 0 mm | - | - | - |
| 1777507423 | 13.89° C | 89% | 1019.7 hPa | 0 mm | - | - | - |
| 1777506518 | 13.89° C | 89% | 1019.6 hPa | 0 mm | - | - | - |
| 1777505616 | 13.89° C | 89% | 1019.4 hPa | 0 mm | - | - | - |
| 1777504709 | 13.89° C | 90% | 1019.2 hPa | 0 mm | - | - | - |
| 1777503825 | 13.89° C | 90% | 1018.9 hPa | 0 mm | - | - | - |
| 1777502914 | 13.89° C | 90% | 1018.9 hPa | 0 mm | - | - | - |
| 1777502010 | 13.89° C | 89% | 1018.9 hPa | 0.76 mm | - | - | - |
| 1777501125 | 13.89° C | 88% | 1018.7 hPa | 5.08 mm | - | - | - |
| 1777500222 | 14.44° C | 87% | 1018.5 hPa | 5.08 mm | - | - | - |
| 1777499318 | 14.44° C | 85% | 1018.2 hPa | 5.33 mm | - | - | - |
| 1777498494 | 15.56° C | 82% | 1018.1 hPa | 4.83 mm | - | - | - |
| 1777497515 | 15.56° C | 78% | 1018.1 hPa | 0.25 mm | - | - | - |
| 1777496605 | 16.11° C | 75% | 1017.6 hPa | 0.25 mm | - | - | - |
| 1777495719 | 16.67° C | 70% | 1017.6 hPa | 0 mm | - | - | - |
| 1777494812 | 17.22° C | 70% | 1017.5 hPa | 0 mm | - | - | - |
| 1777493909 | 17.22° C | 70% | 1017.3 hPa | 0 mm | - | - | - |
| 1777493026 | 17.78° C | 69% | 1017 hPa | 0 mm | - | - | - |
| 1777492121 | 17.78° C | 69% | 1016.7 hPa | 0 mm | - | - | - |
| 1777491216 | 17.78° C | 71% | 1016.5 hPa | 0 mm | - | - | - |
| 1777490318 | 18.33° C | 71% | 1016.1 hPa | 0 mm | - | - | - |
| 1777489410 | 18.33° C | 72% | 1015.8 hPa | 0 mm | - | - | - |
* Rain latest hour (hover to see other rain measurements)
** Current wind speed in m/s (hover to see current wind gust speed)